Location: Camaret
(48.2753°N, 4.5961°W)
Time: 04:15:37
(UTC+00:00)

Timation 2 Rocket - Pass Details

Date: 29 October 2020
Orbit: 904 x 1077 km, 70.0° (Epoch: 01 December)

Event Time Altitude Azimuth Distance (km) Brightness Sun altitude
Rises 17:29:38 0° 330° (NNW) 3,738 7.3 -5.0°
Reaches altitude 10° 17:32:11 10° 331° (NNW) 2,809 6.6 -5.4°
Maximum altitude 17:38:49 88° 60° (ENE) 1,053 4.2 -6.4°
Drops below altitude 10° 17:45:39 10° 152° (SSE) 2,890 6.3 -7.6°
Sets 17:48:17 0° 152° (SSE) 3,852 7.0 -8.0°
